[[{"header":{"parameterUnit":"m.s-1","parameterCategory":1,"la1":30.2992,"la2":30.254,"lo1":-89.0895,"lo2":-89.0443,"dy":0.0025,"dx":0.0025,"nx":19,"ny":19,"refTime":"2026-05-01T21:00:00:Z","depth":0,"parameterNumber":2,"parameterNumberName":"U-component_of_WINDS"},"data":[0,0,0,0.7859,0.786,0.794,0.794,0.8026,0.8026,0,0,0,0,0,0,0,0,0,0,0,0.7824,0.7824,0.7859,0.786,0.794,0.794,0.8026,0.8027,0,0,0,0,0,0,0,0,0,0,0,0.7824,0.7824,0.7825,0.7861,0.794,0.7941,0.8026,0.7972,0,0,0,0,0,0,0,0,0,0,0.7897,0.7854,0.7824,0.7825,0.7861,0.794,0.7941,0.7969,0.7975,0.7982,0,0.7985,0,0.8007,0.8031,0.8031,0,0,0,0.7869,0.7849,0.7881,0.7825,0.7862,0.794,0.7906,0.7973,0.7979,0.799,0.7987,0.7991,0.8009,0.8032,0.8032,0.8046,0.8045,0,0,0.7864,0.7833,0.7876,0.7884,0.787,0.7904,0.7909,0.7977,0.7972,0.7987,0.7993,0.801,0.8032,0.8032,0.8046,0.8045,0,0,0,0.7846,0.7829,0.786,0.788,0.7896,0.7906,0.7912,0.7969,0.7981,0.7994,0.8011,0.8032,0.8033,0.8046,0.8046,0.7998,0,0,0,0.7844,0.7819,0.7857,0.7839,0.7894,0.7933,0.7902,0.7976,0.7985,0.8011,0.8032,0.8034,0.8047,0.8046,0.8,0.798,0,0,0,0.7823,0.7817,0.7824,0.7837,0.787,0.7933,0.7949,0.7979,0.7995,0.8031,0.8034,0.8047,0.8046,0.8002,0.7983,0.7973,0,0,0,0.7791,0.7781,0.7823,0.7819,0.7869,0.7903,0.7949,0.7976,0.8002,0.8033,0.8047,0.8046,0.8003,0.7985,0.7975,0.7958,0.7948,0,0,0.7761,0.7777,0.7777,0.7816,0.7834,0.7893,0.7905,0.7958,0.7991,0.8026,0.8027,0.7999,0.7984,0.7974,0.7908,0.79,0,0,0,0.7757,0.7756,0.7768,0.779,0.783,0.7863,0.7918,0.7938,0.7969,0.8002,0.7995,0.7987,0.7982,0.7975,0.7969,0.7966,0.8042,0.8042,0.8042,0.7668,0.771,0.7712,0.7764,0.7785,0.7842,0.7864,0.79,0.7937,0.7935,0.7944,0.79,0.789,0.7886,0.7882,0.7941,0.794,0.794,0.794,0.7626,0.7631,0.768,0.77,0.7745,0.7763,0.7818,0.7843,0.7866,0.7896,0.7894,0.7921,0.7875,0.7875,0.7937,0.7938,0.7938,0.7938,0.7939,0.7571,0.7581,0.7605,0.7642,0.7666,0.772,0.7739,0.778,0.7819,0.7817,0.7831,0.7832,0.7837,0.7821,0.7821,0.7821,0.7821,0.7821,0.7821,0.7503,0.7532,0.7543,0.7586,0.7605,0.7637,0.7695,0.7716,0.7749,0.7778,0.7778,0.7814,0.7864,0.7874,0.7819,0.7819,0.7819,0.7819,0.782,0.7442,0.7462,0.7479,0.7498,0.7552,0.7572,0.7625,0.7664,0.7688,0.7696,0.7733,0.7764,0.7783,0.7788,0.7797,0.7725,0.7725,0.7725,0.7725,0.7394,0.7408,0.7434,0.7462,0.7496,0.7545,0.7563,0.7608,0.7658,0.7675,0.7693,0.7709,0.7713,0.7729,0.7736,0.7745,0.7661,0.7661,0.7661,0.7358,0.7377,0.7383,0.7432,0.7477,0.7515,0.7532,0.7564,0.7626,0.7659,0.7689,0.7692,0.7719,0.7725,0.7756,0.7766,0.7784,0,0]},{"header":{"parameterUnit":"m.s-1","parameterCategory":1,"la1":30.2992,"la2":30.254,"lo1":-89.0895,"lo2":-89.0443,"dy":0.0025,"dx":0.0025,"nx":19,"ny":19,"refTime":"2026-05-01T21:00:00:Z","depth":0,"parameterNumber":3,"parameterNumberName":"V-component_of_WINDS"},"data":[0,0,0,-2.3796,-2.3797,-2.3838,-2.3838,-2.3883,-2.3884,0,0,0,0,0,0,0,0,0,0,0,-2.3778,-2.3778,-2.3796,-2.3797,-2.3838,-2.3838,-2.3883,-2.3884,0,0,0,0,0,0,0,0,0,0,0,-2.3778,-2.3778,-2.3778,-2.3797,-2.3838,-2.3838,-2.3883,-2.3855,0,0,0,0,0,0,0,0,0,0,-2.3816,-2.3794,-2.3778,-2.3778,-2.3797,-2.3838,-2.3838,-2.3854,-2.3857,-2.3861,0,-2.3862,0,-2.3874,-2.3886,-2.3886,0,0,0,-2.3801,-2.3791,-2.3808,-2.3778,-2.3797,-2.3838,-2.3821,-2.3855,-2.3859,-2.3865,-2.3863,-2.3865,-2.3875,-2.3886,-2.3886,-2.3897,-2.3897,0,0,-2.3799,-2.3782,-2.3805,-2.381,-2.3802,-2.3819,-2.3822,-2.3858,-2.3855,-2.3863,-2.3866,-2.3875,-2.3886,-2.3887,-2.3897,-2.3897,0,0,0,-2.3789,-2.378,-2.3796,-2.3807,-2.3815,-2.382,-2.3823,-2.3853,-2.386,-2.3867,-2.3876,-2.3887,-2.3887,-2.3898,-2.3897,-2.3875,0,0,0,-2.3788,-2.3775,-2.3795,-2.3785,-2.3815,-2.3835,-2.3818,-2.3857,-2.3862,-2.3876,-2.3887,-2.3888,-2.3898,-2.3897,-2.3876,-2.3867,0,0,0,-2.3777,-2.3774,-2.3778,-2.3784,-2.3802,-2.3835,-2.3843,-2.3859,-2.3867,-2.3886,-2.3888,-2.3898,-2.3897,-2.3877,-2.3868,-2.3866,0,0,0,-2.3761,-2.3756,-2.3777,-2.3776,-2.3801,-2.382,-2.3843,-2.3858,-2.3872,-2.3887,-2.3898,-2.3897,-2.3877,-2.3869,-2.3867,-2.3861,-2.3857,0,0,-2.3745,-2.3753,-2.3754,-2.3774,-2.3785,-2.3815,-2.3823,-2.3851,-2.3868,-2.3887,-2.3887,-2.3875,-2.3868,-2.3866,-2.384,-2.3836,0,0,0,-2.3744,-2.3744,-2.375,-2.3763,-2.3785,-2.3803,-2.3831,-2.3842,-2.386,-2.3874,-2.3874,-2.387,-2.387,-2.3868,-2.3865,-2.3866,-2.3896,-2.3896,-2.3896,-2.3697,-2.3721,-2.3724,-2.3752,-2.3764,-2.3795,-2.3807,-2.3827,-2.3845,-2.3845,-2.3851,-2.3832,-2.383,-2.3828,-2.3828,-2.385,-2.385,-2.385,-2.385,-2.3678,-2.3682,-2.3709,-2.3722,-2.3747,-2.3758,-2.3788,-2.3801,-2.3816,-2.3829,-2.383,-2.3843,-2.3823,-2.3825,-2.3848,-2.3848,-2.3848,-2.3849,-2.3849,-2.3651,-2.3657,-2.3671,-2.3694,-2.3709,-2.3738,-2.3752,-2.3774,-2.3794,-2.3795,-2.3804,-2.3805,-2.3809,-2.3798,-2.3798,-2.3798,-2.3798,-2.3798,-2.3798,-2.3617,-2.3634,-2.3642,-2.3667,-2.368,-2.3699,-2.3732,-2.3745,-2.3765,-2.378,-2.378,-2.3799,-2.3817,-2.3821,-2.3797,-2.3797,-2.3797,-2.3797,-2.3797,-2.3589,-2.3599,-2.3612,-2.3625,-2.3658,-2.3672,-2.3701,-2.3726,-2.374,-2.3747,-2.3767,-2.3776,-2.3786,-2.3788,-2.3792,-2.3761,-2.3761,-2.3761,-2.3761,-2.3566,-2.3574,-2.3594,-2.3613,-2.3634,-2.3662,-2.3679,-2.3705,-2.3734,-2.3745,-2.3753,-2.376,-2.3761,-2.377,-2.3773,-2.3776,-2.3743,-2.3743,-2.3743,-2.3551,-2.3562,-2.3571,-2.36,-2.3628,-2.3652,-2.3668,-2.369,-2.3725,-2.3742,-2.3754,-2.3755,-2.3766,-2.3768,-2.3785,-2.3788,-2.3796,0,0]}]]